,,PA_Meas_PMT16A,,PR_Meas_QMR101_102,,RH_Meas_QMH101,,SR_Meas_QMS101,,TA_Meas_QMH101,,GenWind,,GenWind,
time,status,PA,status,PR,status,RH,status,SR,status,TA,status,DirAvg,status,SpdAvg,
2013-09-21, 00:00:05,VALID,918.038,VALID,0,VALID,94.7819,VALID,0,VALID,20.3464,VALID,33,VALID,0,
2013-09-21, 00:01:05,VALID,918.012,VALID,0,VALID,94.7743,VALID,0,VALID,20.3253,VALID,43,VALID,0,
2013-09-21, 00:02:05,VALID,918.026,VALID,0,VALID,94.7972,VALID,0,VALID,20.3464,VALID,24,VALID,0,
2013-09-21, 00:03:05,VALID,918.016,VALID,0,VALID,94.7896,VALID,0,VALID,20.3448,VALID,17,VALID,0,
2013-09-21, 00:04:05,VALID,918.013,VALID,0,VALID,94.7591,VALID,0,VALID,20.3659,VALID,29,VALID,0,
2013-09-21, 00:05:05,VALID,917.997,VALID,0,VALID,94.7514,VALID,0,VALID,20.4049,VALID,30,VALID,0,
2013-09-21, 00:06:05,VALID,917.968,VALID,0,VALID,94.7362,VALID,0,VALID,20.4049,VALID,30,VALID,0,
2013-09-21, 00:07:05,VALID,917.995,VALID,0,VALID,94.6981,VALID,0.107441,VALID,20.4049,VALID,18,VALID,0,
2013-09-21, 00:08:05,VALID,917.954,VALID,0,VALID,94.6752,VALID,0,VALID,20.4244,VALID,7,VALID,0,
2013-09-21, 00:09:05,VALID,917.973,VALID,0,VALID,94.6371,VALID,0,VALID,20.4049,VALID,4,VALID,0,
2013-09-21, 00:10:05,VALID,917.938,VALID,0,VALID,94.5761,VALID,0,VALID,20.4049,VALID,345,VALID,0,
2013-09-21, 00:11:05,VALID,917.901,VALID,0,VALID,94.6142,VALID,0,VALID,20.3854,VALID,346,VALID,0,
2013-09-21, 00:12:05,VALID,917.909,VALID,0,VALID,94.6523,VALID,0,VALID,20.3854,VALID,8,VALID,0,
2013-09-21, 00:13:05,VALID,917.889,VALID,0,VALID,94.6676,VALID,0,VALID,20.3643,VALID,8,VALID,0,
2013-09-21, 00:14:05,VALID,917.869,VALID,0,VALID,94.6752,VALID,0,VALID,20.3643,VALID,4,VALID,0,
2013-09-21, 00:15:05,VALID,917.866,VALID,0,VALID,94.6752,VALID,0,VALID,20.3659,VALID,3,VALID,0,
2013-09-21, 00:16:05,VALID,917.849,VALID,0,VALID,94.6981,VALID,0.107441,VALID,20.3253,VALID,3,VALID,0,
2013-09-21, 00:17:05,VALID,917.847,VALID,0,VALID,94.7591,VALID,0.107441,VALID,20.3659,VALID,3,VALID,0,
2013-09-21, 00:18:05,VALID,917.781,VALID,0,VALID,94.8048,VALID,0,VALID,20.3659,VALID,3,VALID,0,
2013-09-21, 00:19:05,VALID,917.776,VALID,0,VALID,94.8277,VALID,0,VALID,20.3659,VALID,355,VALID,0,
2013-09-21, 00:20:05,VALID,917.755,VALID,0,VALID,94.8048,VALID,0,VALID,20.3269,VALID,11,VALID,0,
2013-09-21, 00:21:05,VALID,917.749,VALID,0,VALID,94.8048,VALID,0,VALID,20.3269,VALID,8,VALID,0,
2013-09-21, 00:22:05,VALID,917.771,VALID,0,VALID,94.7743,VALID,0,VALID,20.3479,VALID,338,VALID,0,
2013-09-21, 00:23:05,VALID,917.789,VALID,0,VALID,94.7896,VALID,0,VALID,20.3269,VALID,17,VALID,0,
2013-09-21, 00:24:05,VALID,917.774,VALID,0,VALID,94.8505,VALID,0,VALID,20.3464,VALID,347,VALID,0,
2013-09-21, 00:25:05,VALID,917.773,VALID,0,VALID,94.8124,VALID,0,VALID,20.3464,VALID,16,VALID,0,
2013-09-21, 00:26:05,VALID,917.803,VALID,0,VALID,94.7972,VALID,0,VALID,20.3253,VALID,358,VALID,0,
2013-09-21, 00:27:05,VALID,917.727,VALID,0,VALID,94.7972,VALID,0,VALID,20.3659,VALID,290,VALID,0,
2013-09-21, 00:28:05,VALID,917.728,VALID,0,VALID,94.7972,VALID,0,VALID,20.3854,VALID,291,VALID,0,
2013-09-21, 00:29:05,VALID,917.716,VALID,0,VALID,94.7667,VALID,0.107441,VALID,20.3854,VALID,293,VALID,0,
2013-09-21, 00:30:05,VALID,917.748,VALID,0,VALID,94.7362,VALID,0,VALID,20.4049,VALID,345,VALID,0,
2013-09-21, 00:31:05,VALID,917.755,VALID,0,VALID,94.6447,VALID,0,VALID,20.4049,VALID,340,VALID,0,
2013-09-21, 00:32:05,VALID,917.747,VALID,0,VALID,94.6523,VALID,0,VALID,20.4049,VALID,2,VALID,0,
2013-09-21, 00:33:05,VALID,917.71,VALID,0,VALID,94.66,VALID,0,VALID,20.4049,VALID,2,VALID,0,
2013-09-21, 00:34:05,VALID,917.689,VALID,0,VALID,94.6828,VALID,0,VALID,20.4259,VALID,2,VALID,0,
2013-09-21, 00:35:05,VALID,917.702,VALID,0,VALID,94.6523,VALID,0,VALID,20.4244,VALID,1,VALID,0,
2013-09-21, 00:36:05,VALID,917.705,VALID,0,VALID,94.5532,VALID,0,VALID,20.3869,VALID,332,VALID,0,
2013-09-21, 00:37:05,VALID,917.715,VALID,0,VALID,94.5227,VALID,0,VALID,20.3854,VALID,339,VALID,0,
2013-09-21, 00:38:05,VALID,917.729,VALID,0,VALID,94.4999,VALID,0,VALID,20.3674,VALID,360,VALID,0,
2013-09-21, 00:39:05,VALID,917.727,VALID,0,VALID,94.5761,VALID,0,VALID,20.3659,VALID,4,VALID,0,
2013-09-21, 00:40:05,VALID,917.666,VALID,0,VALID,94.5837,VALID,0,VALID,20.3464,VALID,4,VALID,0,
2013-09-21, 00:41:05,VALID,917.682,VALID,0,VALID,94.6295,VALID,0,VALID,20.3674,VALID,4,VALID,0,
2013-09-21, 00:42:05,VALID,917.658,VALID,0,VALID,94.6371,VALID,0,VALID,20.3674,VALID,360,VALID,0,
2013-09-21, 00:43:05,VALID,917.663,VALID,0,VALID,94.599,VALID,0,VALID,20.3464,VALID,14,VALID,0,
2013-09-21, 00:44:05,VALID,917.686,VALID,0,VALID,94.6142,VALID,0,VALID,20.3869,VALID,25,VALID,0,
2013-09-21, 00:45:05,VALID,917.641,VALID,0,VALID,94.6295,VALID,0,VALID,20.3869,VALID,2,VALID,0,
2013-09-21, 00:46:05,VALID,917.65,VALID,0,VALID,94.5532,VALID,0,VALID,20.3269,VALID,25,VALID,0,
2013-09-21, 00:47:05,VALID,917.69,VALID,0,VALID,94.6142,VALID,0,VALID,20.3674,VALID,9,VALID,0,
2013-09-21, 00:48:05,VALID,917.682,VALID,0,VALID,94.6523,VALID,0,VALID,20.3869,VALID,29,VALID,0,
2013-09-21, 00:49:05,VALID,917.65,VALID,0,VALID,94.6371,VALID,0,VALID,20.3674,VALID,6,VALID,0,
2013-09-21, 00:50:05,VALID,917.657,VALID,0,VALID,94.6828,VALID,0,VALID,20.3674,VALID,300,VALID,0,
2013-09-21, 00:51:05,VALID,917.63,VALID,0,VALID,94.66,VALID,0,VALID,20.3479,VALID,14,VALID,0,
2013-09-21, 00:52:05,VALID,917.617,VALID,0,VALID,94.7362,VALID,0,VALID,20.3464,VALID,14,VALID,0,
2013-09-21, 00:53:05,VALID,917.602,VALID,0,VALID,94.6905,VALID,0,VALID,20.3464,VALID,14,VALID,0,
2013-09-21, 00:54:05,VALID,917.556,VALID,0,VALID,94.5227,VALID,0,VALID,20.3269,VALID,353,VALID,0,
2013-09-21, 00:55:05,VALID,917.565,VALID,0,VALID,94.3779,VALID,0,VALID,20.3269,VALID,347,VALID,0,
2013-09-21, 00:56:05,VALID,917.594,VALID,0,VALID,94.3245,VALID,0,VALID,20.3479,VALID,339,VALID,0,
2013-09-21, 00:57:05,VALID,917.574,VALID,0,VALID,94.3474,VALID,0,VALID,20.3269,VALID,14,VALID,0,
2013-09-21, 00:58:05,VALID,917.589,VALID,0,VALID,94.3321,VALID,0,VALID,20.3464,VALID,14,VALID,0,
2013-09-21, 00:59:05,VALID,917.628,VALID,0,VALID,94.4008,VALID,0,VALID,20.3464,VALID,357,VALID,0,
2013-09-21, 01:00:05,VALID,917.597,VALID,0,VALID,94.4313,VALID,0,VALID,20.3674,VALID,356,VALID,0,
2013-09-21, 01:01:05,VALID,917.533,VALID,0,VALID,94.4389,VALID,0,VALID,20.3659,VALID,283,VALID,0,
2013-09-21, 01:02:05,VALID,917.504,VALID,0,VALID,94.4389,VALID,0,VALID,20.3464,VALID,6,VALID,0,
2013-09-21, 01:03:05,VALID,917.494,VALID,0,VALID,94.4999,VALID,0.107441,VALID,20.3659,VALID,6,VALID,0,
2013-09-21, 01:04:05,VALID,917.545,VALID,0,VALID,94.4922,VALID,0,VALID,20.3464,VALID,6,VALID,0,
2013-09-21, 01:05:05,VALID,917.55,VALID,0,VALID,94.4999,VALID,0.107441,VALID,20.3659,VALID,1,VALID,0,
2013-09-21, 01:06:05,VALID,917.566,VALID,0,VALID,94.4694,VALID,0.107441,VALID,20.3643,VALID,354,VALID,0,
2013-09-21, 01:07:05,VALID,917.561,VALID,0,VALID,94.4541,VALID,0,VALID,20.3659,VALID,354,VALID,0,
2013-09-21, 01:08:05,VALID,917.534,VALID,0,VALID,94.4313,VALID,0,VALID,20.3058,VALID,356,VALID,0,
2013-09-21, 01:09:05,VALID,917.51,VALID,0,VALID,94.5304,VALID,0.107441,VALID,20.3058,VALID,355,VALID,0,
2013-09-21, 01:10:05,VALID,917.506,VALID,0,VALID,94.5837,VALID,0,VALID,20.3058,VALID,353,VALID,0,
2013-09-21, 01:11:05,VALID,917.509,VALID,0,VALID,94.66,VALID,0.107441,VALID,20.3058,VALID,352,VALID,0,
2013-09-21, 01:12:05,VALID,917.531,VALID,0,VALID,94.7133,VALID,0.107441,VALID,20.3269,VALID,350,VALID,0,
2013-09-21, 01:13:05,VALID,917.542,VALID,0,VALID,94.7591,VALID,0,VALID,20.2863,VALID,354,VALID,0,
2013-09-21, 01:14:05,VALID,917.537,VALID,0,VALID,94.7819,VALID,0,VALID,20.3074,VALID,351,VALID,0,
2013-09-21, 01:15:05,VALID,917.582,VALID,0,VALID,94.6218,VALID,0,VALID,20.3284,VALID,349,VALID,0,
2013-09-21, 01:16:05,VALID,917.561,VALID,0,VALID,94.6523,VALID,0,VALID,20.3074,VALID,351,VALID,0,
2013-09-21, 01:17:05,VALID,917.541,VALID,0,VALID,94.6447,VALID,0,VALID,20.3058,VALID,360,VALID,0,
2013-09-21, 01:18:05,VALID,917.515,VALID,0,VALID,94.6828,VALID,0.107441,VALID,20.3074,VALID,1,VALID,0,
2013-09-21, 01:19:05,VALID,917.477,VALID,0,VALID,94.7438,VALID,0.107441,VALID,20.2684,VALID,356,VALID,0,
2013-09-21, 01:20:05,VALID,917.455,VALID,0,VALID,94.7514,VALID,0,VALID,20.2684,VALID,2,VALID,0,
2013-09-21, 01:21:05,VALID,917.448,VALID,0,VALID,94.7819,VALID,0,VALID,20.2684,VALID,360,VALID,0,
2013-09-21, 01:22:05,VALID,917.477,VALID,0,VALID,94.8353,VALID,0,VALID,20.3074,VALID,10,VALID,0,
2013-09-21, 01:23:05,VALID,917.472,VALID,0,VALID,94.8277,VALID,0,VALID,20.3464,VALID,10,VALID,0,
2013-09-21, 01:24:05,VALID,917.437,VALID,0,VALID,94.82,VALID,0,VALID,20.3464,VALID,10,VALID,0,
2013-09-21, 01:25:05,VALID,917.441,VALID,0,VALID,94.7438,VALID,0,VALID,20.3659,VALID,1,VALID,0,
2013-09-21, 01:26:05,VALID,917.427,VALID,0,VALID,94.7591,VALID,0,VALID,20.3659,VALID,2,VALID,0,
2013-09-21, 01:27:05,VALID,917.419,VALID,0,VALID,94.7133,VALID,0,VALID,20.3643,VALID,2,VALID,0,
2013-09-21, 01:28:05,VALID,917.396,VALID,0,VALID,94.6981,VALID,0,VALID,20.3838,VALID,2,VALID,0,
2013-09-21, 01:29:05,VALID,917.371,VALID,0,VALID,94.5151,VALID,0,VALID,20.3854,VALID,2,VALID,0,
2013-09-21, 01:30:05,VALID,917.37,VALID,0,VALID,94.5151,VALID,0,VALID,20.3659,VALID,2,VALID,0,
2013-09-21, 01:31:05,VALID,917.402,VALID,0,VALID,94.4999,VALID,0,VALID,20.4049,VALID,2,VALID,0,
2013-09-21, 01:32:05,VALID,917.412,VALID,0,VALID,94.5304,VALID,0,VALID,20.3643,VALID,2,VALID,0,
2013-09-21, 01:33:05,VALID,917.393,VALID,0,VALID,94.5532,VALID,0.107441,VALID,20.4049,VALID,2,VALID,0,
2013-09-21, 01:34:05,VALID,917.395,VALID,0,VALID,94.4999,VALID,0,VALID,20.4244,VALID,2,VALID,0,
2013-09-21, 01:35:05,VALID,917.367,VALID,0,VALID,94.5304,VALID,0,VALID,20.4033,VALID,2,VALID,0,
2013-09-21, 01:36:05,VALID,917.39,VALID,0,VALID,94.4389,VALID,0.107441,VALID,20.4033,VALID,358,VALID,0,
2013-09-21, 01:37:05,VALID,917.385,VALID,0,VALID,94.3474,VALID,0,VALID,20.4049,VALID,327,VALID,0,
2013-09-21, 01:38:05,VALID,917.384,VALID,0,VALID,94.2407,VALID,0,VALID,20.3643,VALID,327,VALID,0,
2013-09-21, 01:39:05,VALID,917.393,VALID,0,VALID,94.1949,VALID,0.107441,VALID,20.3448,VALID,327,VALID,0,
2013-09-21, 01:40:05,VALID,917.398,VALID,0,VALID,94.233,VALID,0,VALID,20.3854,VALID,327,VALID,0,
2013-09-21, 01:41:05,VALID,917.368,VALID,0,VALID,94.2788,VALID,0.107441,VALID,20.3838,VALID,321,VALID,0,
2013-09-21, 01:42:05,VALID,917.354,VALID,0,VALID,94.0577,VALID,0,VALID,20.3854,VALID,346,VALID,0,
2013-09-21, 01:43:05,VALID,917.355,VALID,0,VALID,94.1187,VALID,0,VALID,20.3854,VALID,10,VALID,0,
2013-09-21, 01:44:05,VALID,917.325,VALID,0,VALID,94.0577,VALID,0.107441,VALID,20.3464,VALID,15,VALID,0,
2013-09-21, 01:45:05,VALID,917.255,VALID,0,VALID,93.5317,VALID,0,VALID,20.2668,VALID,3,VALID,0,
2013-09-21, 01:46:05,VALID,917.253,VALID,0,VALID,93.3792,VALID,0,VALID,20.2879,VALID,23,VALID,0,
2013-09-21, 01:47:05,VALID,917.228,VALID,0,VALID,93.3106,VALID,0.107441,VALID,20.3253,VALID,23,VALID,0,
2013-09-21, 01:48:05,VALID,917.197,VALID,0,VALID,93.0819,VALID,0,VALID,20.3659,VALID,23,VALID,0,
2013-09-21, 01:49:05,VALID,917.182,VALID,0,VALID,92.8532,VALID,0,VALID,20.3659,VALID,23,VALID,0,
2013-09-21, 01:50:05,VALID,917.207,VALID,0,VALID,92.6931,VALID,0,VALID,20.3659,VALID,23,VALID,0,
2013-09-21, 01:51:05,VALID,917.186,VALID,0,VALID,92.6321,VALID,0,VALID,20.4049,VALID,23,VALID,0,
2013-09-21, 01:52:05,VALID,917.158,VALID,0,VALID,92.5025,VALID,0,VALID,20.4049,VALID,44,VALID,0,
2013-09-21, 01:53:05,VALID,917.144,VALID,0,VALID,92.4034,VALID,0,VALID,20.3854,VALID,38,VALID,0,
2013-09-21, 01:54:05,VALID,917.135,VALID,0,VALID,92.6245,VALID,0,VALID,20.3659,VALID,35,VALID,0,
2013-09-21, 01:55:05,VALID,917.116,VALID,0,VALID,92.8989,VALID,0.107441,VALID,20.3464,VALID,13,VALID,0,
2013-09-21, 01:56:05,VALID,917.13,VALID,0,VALID,93.1124,VALID,0,VALID,20.3253,VALID,358,VALID,0,
2013-09-21, 01:57:05,VALID,917.126,VALID,0,VALID,93.3106,VALID,0,VALID,20.3464,VALID,356,VALID,0,
2013-09-21, 01:58:05,VALID,917.104,VALID,0,VALID,93.5088,VALID,0,VALID,20.3269,VALID,356,VALID,0,
2013-09-21, 01:59:05,VALID,917.106,VALID,0,VALID,93.7451,VALID,0,VALID,20.3269,VALID,23,VALID,0,
2013-09-21, 02:00:05,VALID,917.087,VALID,0,VALID,93.9281,VALID,0,VALID,20.2863,VALID,23,VALID,0,
2013-09-21, 02:01:05,VALID,917.061,VALID,0,VALID,94.0043,VALID,0,VALID,20.3074,VALID,23,VALID,0,
2013-09-21, 02:02:05,VALID,917.065,VALID,0,VALID,94.0653,VALID,0.107441,VALID,20.2863,VALID,23,VALID,0,
2013-09-21, 02:03:05,VALID,917.032,VALID,0,VALID,94.0043,VALID,0.107441,VALID,20.2863,VALID,23,VALID,0,
2013-09-21, 02:04:05,VALID,917.023,VALID,0,VALID,94.0272,VALID,0,VALID,20.3269,VALID,23,VALID,0,
2013-09-21, 02:05:05,VALID,917.035,VALID,0,VALID,94.0272,VALID,0,VALID,20.3659,VALID,23,VALID,0,
2013-09-21, 02:06:05,VALID,916.984,VALID,0,VALID,93.9662,VALID,0,VALID,20.3643,VALID,23,VALID,0,
2013-09-21, 02:07:04,VALID,916.976,VALID,0,VALID,93.9052,VALID,0,VALID,20.3448,VALID,23,VALID,0,
2013-09-21, 02:08:04,VALID,916.964,VALID,0,VALID,93.8976,VALID,0,VALID,20.3464,VALID,23,VALID,0,
2013-09-21, 02:09:04,VALID,916.937,VALID,0,VALID,93.9129,VALID,0,VALID,20.3464,VALID,23,VALID,0,
2013-09-21, 02:10:04,VALID,916.961,VALID,0,VALID,93.951,VALID,0,VALID,20.3253,VALID,23,VALID,0,
2013-09-21, 02:11:04,VALID,916.973,VALID,0,VALID,93.8824,VALID,0,VALID,20.3269,VALID,23,VALID,0,
2013-09-21, 02:12:04,VALID,916.958,VALID,0,VALID,93.9052,VALID,0.107441,VALID,20.3074,VALID,23,VALID,0,
2013-09-21, 02:13:04,VALID,916.952,VALID,0,VALID,93.8214,VALID,0,VALID,20.2879,VALID,23,VALID,0,
2013-09-21, 02:14:04,VALID,916.938,VALID,0,VALID,93.7528,VALID,0,VALID,20.2278,VALID,18,VALID,0,
2013-09-21, 02:15:04,VALID,916.906,VALID,0,VALID,93.8138,VALID,0,VALID,20.2098,VALID,18,VALID,0,
2013-09-21, 02:16:04,VALID,916.907,VALID,0,VALID,93.9281,VALID,0,VALID,20.1903,VALID,18,VALID,0,
2013-09-21, 02:17:04,VALID,916.902,VALID,0,VALID,94.073,VALID,0,VALID,20.1693,VALID,18,VALID,0,
2013-09-21, 02:18:04,VALID,916.894,VALID,0,VALID,94.0272,VALID,0,VALID,20.1903,VALID,348,VALID,0,
2013-09-21, 02:19:04,VALID,916.904,VALID,0,VALID,93.8976,VALID,0,VALID,20.1318,VALID,340,VALID,0,
2013-09-21, 02:20:04,VALID,916.877,VALID,0,VALID,93.7756,VALID,0,VALID,20.1123,VALID,340,VALID,0,
2013-09-21, 02:21:04,VALID,916.832,VALID,0,VALID,93.8061,VALID,0,VALID,20.0928,VALID,357,VALID,0,
2013-09-21, 02:22:04,VALID,916.811,VALID,0,VALID,93.7604,VALID,0,VALID,20.0733,VALID,357,VALID,0,
2013-09-21, 02:23:04,VALID,916.831,VALID,0,VALID,93.6918,VALID,0,VALID,20.0538,VALID,357,VALID,0,
2013-09-21, 02:24:04,VALID,916.796,VALID,0,VALID,93.7223,VALID,0,VALID,20.0358,VALID,357,VALID,0,
2013-09-21, 02:25:04,VALID,916.799,VALID,0,VALID,93.7375,VALID,0,VALID,19.9953,VALID,357,VALID,0,
2013-09-21, 02:26:04,VALID,916.792,VALID,0,VALID,93.7375,VALID,0,VALID,19.9758,VALID,357,VALID,0,
2013-09-21, 02:27:04,VALID,916.787,VALID,0,VALID,93.8824,VALID,0,VALID,19.9563,VALID,357,VALID,0,
2013-09-21, 02:28:04,VALID,916.749,VALID,0,VALID,94.0501,VALID,0,VALID,19.9758,VALID,357,VALID,0,
2013-09-21, 02:29:04,VALID,916.793,VALID,0,VALID,94.2254,VALID,0,VALID,19.9563,VALID,357,VALID,0,
2013-09-21, 02:30:04,VALID,916.76,VALID,0,VALID,94.3017,VALID,0,VALID,19.9563,VALID,357,VALID,0,
2013-09-21, 02:31:04,VALID,916.76,VALID,0,VALID,94.2102,VALID,0,VALID,19.9578,VALID,357,VALID,0,
2013-09-21, 02:32:04,VALID,916.738,VALID,0,VALID,94.1187,VALID,0,VALID,19.8783,VALID,357,VALID,0,
2013-09-21, 02:33:04,VALID,916.73,VALID,0,VALID,94.0348,VALID,0,VALID,19.8198,VALID,357,VALID,0,
2013-09-21, 02:34:04,VALID,916.732,VALID,0,VALID,94.0958,VALID,0,VALID,19.7808,VALID,357,VALID,0,
2013-09-21, 02:35:04,VALID,916.718,VALID,0,VALID,94.2178,VALID,0,VALID,19.7418,VALID,357,VALID,0,
2013-09-21, 02:36:04,VALID,916.749,VALID,0,VALID,94.3626,VALID,0,VALID,19.7613,VALID,357,VALID,0,
2013-09-21, 02:37:04,VALID,916.747,VALID,0,VALID,94.3321,VALID,0,VALID,19.7028,VALID,357,VALID,0,
2013-09-21, 02:38:04,VALID,916.753,VALID,0,VALID,94.2254,VALID,0,VALID,19.6638,VALID,357,VALID,0,
2013-09-21, 02:39:04,VALID,916.74,VALID,0,VALID,94.2483,VALID,0,VALID,19.6038,VALID,357,VALID,0,
2013-09-21, 02:40:04,VALID,916.722,VALID,0,VALID,94.4922,VALID,0,VALID,19.6053,VALID,357,VALID,0,
2013-09-21, 02:41:04,VALID,916.704,VALID,0,VALID,94.7591,VALID,0,VALID,19.6248,VALID,357,VALID,0,
2013-09-21, 02:42:04,VALID,916.685,VALID,0,VALID,94.8048,VALID,0,VALID,19.6053,VALID,357,VALID,0,
2013-09-21, 02:43:04,VALID,916.68,VALID,0,VALID,94.9039,VALID,0,VALID,19.6053,VALID,357,VALID,0,
2013-09-21, 02:44:04,VALID,916.678,VALID,0,VALID,95.0183,VALID,0,VALID,19.6053,VALID,357,VALID,0,
2013-09-21, 02:45:04,VALID,916.665,VALID,0,VALID,95.0259,VALID,0,VALID,19.5663,VALID,357,VALID,0,
2013-09-21, 02:46:04,VALID,916.66,VALID,0,VALID,95.0106,VALID,0,VALID,19.5678,VALID,357,VALID,0,
2013-09-21, 02:47:04,VALID,916.667,VALID,0,VALID,95.0259,VALID,0,VALID,19.5288,VALID,357,VALID,0,
2013-09-21, 02:48:04,VALID,916.609,VALID,0,VALID,94.9954,VALID,0,VALID,19.4688,VALID,357,VALID,0,
2013-09-21, 02:49:04,VALID,916.626,VALID,0,VALID,94.9344,VALID,0,VALID,19.4103,VALID,355,VALID,0,
2013-09-21, 02:50:04,VALID,916.6,VALID,0,VALID,94.8734,VALID,0,VALID,19.3518,VALID,355,VALID,0,
2013-09-21, 02:51:04,VALID,916.591,VALID,0,VALID,94.8582,VALID,0,VALID,19.3128,VALID,353,VALID,0,
2013-09-21, 02:52:04,VALID,916.572,VALID,0,VALID,94.9192,VALID,0,VALID,19.2933,VALID,352,VALID,0,
2013-09-21, 02:53:04,VALID,916.55,VALID,0,VALID,94.9268,VALID,0,VALID,19.2543,VALID,352,VALID,0,
2013-09-21, 02:54:04,VALID,916.542,VALID,0,VALID,95.0106,VALID,0,VALID,19.2558,VALID,352,VALID,0,
2013-09-21, 02:55:04,VALID,916.572,VALID,0,VALID,95.1555,VALID,0,VALID,19.2558,VALID,331,VALID,0,
2013-09-21, 02:56:04,VALID,916.569,VALID,0,VALID,95.2927,VALID,0,VALID,19.2738,VALID,316,VALID,0,
2013-09-21, 02:57:04,VALID,916.556,VALID,0,VALID,95.3842,VALID,0,VALID,19.2543,VALID,305,VALID,0,
2013-09-21, 02:58:04,VALID,916.559,VALID,0,VALID,95.4147,VALID,0,VALID,19.2153,VALID,305,VALID,0,
2013-09-21, 02:59:04,VALID,916.538,VALID,0,VALID,95.3537,VALID,0,VALID,19.1373,VALID,305,VALID,0,
2013-09-21, 03:00:04,VALID,916.586,VALID,0,VALID,95.3537,VALID,0,VALID,19.0983,VALID,305,VALID,0,
2013-09-21, 03:01:04,VALID,916.613,VALID,0,VALID,95.4604,VALID,0.107441,VALID,19.1373,VALID,305,VALID,0,
2013-09-21, 03:02:04,VALID,916.625,VALID,0,VALID,95.59,VALID,0,VALID,19.1373,VALID,305,VALID,0,
2013-09-21, 03:03:04,VALID,916.649,VALID,0,VALID,95.651,VALID,0,VALID,19.1178,VALID,305,VALID,0,
2013-09-21, 03:04:04,VALID,916.627,VALID,0,VALID,95.7654,VALID,0,VALID,19.1568,VALID,305,VALID,0,
2013-09-21, 03:05:04,VALID,916.627,VALID,0,VALID,95.8721,VALID,0,VALID,19.1763,VALID,305,VALID,0,
2013-09-21, 03:06:04,VALID,916.616,VALID,0,VALID,95.9178,VALID,0,VALID,19.1763,VALID,305,VALID,0,
2013-09-21, 03:07:04,VALID,916.584,VALID,0,VALID,95.9483,VALID,0,VALID,19.1583,VALID,305,VALID,0,
2013-09-21, 03:08:04,VALID,916.557,VALID,0,VALID,95.7272,VALID,0,VALID,18.9619,VALID,305,VALID,0,
2013-09-21, 03:09:04,VALID,916.572,VALID,0,VALID,95.6815,VALID,0,VALID,18.9048,VALID,350,VALID,0,
2013-09-21, 03:10:04,VALID,916.562,VALID,0,VALID,95.895,VALID,0,VALID,18.9619,VALID,350,VALID,0,
2013-09-21, 03:11:04,VALID,916.598,VALID,0,VALID,95.8111,VALID,0,VALID,18.8463,VALID,350,VALID,0,
2013-09-21, 03:12:04,VALID,916.581,VALID,0,VALID,95.8645,VALID,0,VALID,18.8059,VALID,350,VALID,0,
2013-09-21, 03:13:04,VALID,916.596,VALID,0,VALID,95.9407,VALID,0,VALID,18.8463,VALID,350,VALID,0,
2013-09-21, 03:14:04,VALID,916.59,VALID,0,VALID,96.0627,VALID,0,VALID,18.9034,VALID,350,VALID,0,
2013-09-21, 03:15:04,VALID,916.596,VALID,0,VALID,96.1846,VALID,0,VALID,19.0023,VALID,350,VALID,0,
2013-09-21, 03:16:04,VALID,916.607,VALID,0,VALID,96.2151,VALID,0,VALID,18.9619,VALID,350,VALID,0,
2013-09-21, 03:17:04,VALID,916.626,VALID,0,VALID,96.1084,VALID,0,VALID,18.7864,VALID,350,VALID,0,
2013-09-21, 03:18:04,VALID,916.601,VALID,0,VALID,96.0703,VALID,0,VALID,18.7084,VALID,350,VALID,0,
2013-09-21, 03:19:04,VALID,916.628,VALID,0,VALID,96.0245,VALID,0,VALID,18.6304,VALID,350,VALID,0,
2013-09-21, 03:20:04,VALID,916.637,VALID,0,VALID,95.9483,VALID,0,VALID,18.5539,VALID,350,VALID,0,
2013-09-21, 03:21:04,VALID,916.648,VALID,0,VALID,96.0627,VALID,0,VALID,18.5734,VALID,350,VALID,0,
2013-09-21, 03:22:04,VALID,916.677,VALID,0,VALID,96.2228,VALID,0,VALID,18.6903,VALID,350,VALID,0,
2013-09-21, 03:23:04,VALID,916.609,VALID,0,VALID,96.3219,VALID,0,VALID,18.7488,VALID,350,VALID,0,
2013-09-21, 03:24:04,VALID,916.617,VALID,0,VALID,96.36,VALID,0,VALID,18.7683,VALID,350,VALID,0,
2013-09-21, 03:25:04,VALID,916.59,VALID,0,VALID,96.3524,VALID,0,VALID,18.7293,VALID,350,VALID,0,
2013-09-21, 03:26:04,VALID,916.606,VALID,0,VALID,96.3447,VALID,0,VALID,18.6708,VALID,350,VALID,0,
2013-09-21, 03:27:04,VALID,916.635,VALID,0,VALID,96.3752,VALID,0,VALID,18.6319,VALID,350,VALID,0,
2013-09-21, 03:28:04,VALID,916.628,VALID,0,VALID,96.3066,VALID,0,VALID,18.5149,VALID,350,VALID,0,
2013-09-21, 03:29:04,VALID,916.646,VALID,0,VALID,96.2837,VALID,0,VALID,18.4174,VALID,350,VALID,0,
2013-09-21, 03:30:04,VALID,916.636,VALID,0,VALID,96.2304,VALID,0,VALID,18.3004,VALID,350,VALID,0,
2013-09-21, 03:31:04,VALID,916.634,VALID,0,VALID,96.2228,VALID,0,VALID,18.2225,VALID,350,VALID,0,
2013-09-21, 03:32:04,VALID,916.621,VALID,0,VALID,96.2533,VALID,0,VALID,18.1445,VALID,350,VALID,0,
2013-09-21, 03:33:04,VALID,916.646,VALID,0,VALID,96.3142,VALID,0,VALID,18.164,VALID,350,VALID,0,
2013-09-21, 03:34:04,VALID,916.672,VALID,0,VALID,96.421,VALID,0,VALID,18.2225,VALID,350,VALID,0,
2013-09-21, 03:35:04,VALID,916.679,VALID,0,VALID,96.5048,VALID,0,VALID,18.2809,VALID,350,VALID,0,
2013-09-21, 03:36:04,VALID,916.701,VALID,0,VALID,96.5429,VALID,0,VALID,18.3004,VALID,350,VALID,0,
2013-09-21, 03:37:04,VALID,916.688,VALID,0,VALID,96.5734,VALID,0,VALID,18.3784,VALID,350,VALID,0,
2013-09-21, 03:38:04,VALID,916.706,VALID,0,VALID,96.6344,VALID,0,VALID,18.4564,VALID,350,VALID,0,
2013-09-21, 03:39:04,VALID,916.738,VALID,0,VALID,96.6344,VALID,0,VALID,18.4564,VALID,350,VALID,0,
2013-09-21, 03:40:04,VALID,916.755,VALID,0,VALID,96.6268,VALID,0,VALID,18.4174,VALID,350,VALID,0,
2013-09-21, 03:41:04,VALID,916.747,VALID,0,VALID,96.642,VALID,0,VALID,18.4369,VALID,350,VALID,0,
2013-09-21, 03:42:04,VALID,916.772,VALID,0,VALID,96.6573,VALID,0,VALID,18.4174,VALID,350,VALID,0,
2013-09-21, 03:43:04,VALID,916.794,VALID,0,VALID,96.6649,VALID,0,VALID,18.3979,VALID,350,VALID,0,
2013-09-21, 03:44:04,VALID,916.813,VALID,0,VALID,96.6725,VALID,0,VALID,18.4188,VALID,350,VALID,0,
2013-09-21, 03:45:04,VALID,916.827,VALID,0,VALID,96.6725,VALID,0,VALID,18.3199,VALID,350,VALID,0,
2013-09-21, 03:46:04,VALID,916.799,VALID,0,VALID,96.6649,VALID,0,VALID,18.2225,VALID,350,VALID,0,
2013-09-21, 03:47:04,VALID,916.785,VALID,0,VALID,96.6649,VALID,0,VALID,18.1445,VALID,350,VALID,0,
2013-09-21, 03:48:04,VALID,916.758,VALID,0,VALID,96.6497,VALID,0,VALID,18.0665,VALID,350,VALID,0,
2013-09-21, 03:49:04,VALID,916.762,VALID,0,VALID,96.6344,VALID,0,VALID,18.0484,VALID,350,VALID,0,
2013-09-21, 03:50:04,VALID,916.759,VALID,0,VALID,96.6573,VALID,0,VALID,18.008,VALID,350,VALID,0,
2013-09-21, 03:51:04,VALID,916.766,VALID,0,VALID,96.6497,VALID,0,VALID,17.9886,VALID,350,VALID,0,
2013-09-21, 03:52:04,VALID,916.756,VALID,0,VALID,96.6497,VALID,0,VALID,17.9691,VALID,350,VALID,0,
2013-09-21, 03:53:04,VALID,916.746,VALID,0,VALID,96.6725,VALID,0,VALID,17.9691,VALID,350,VALID,0,
2013-09-21, 03:54:04,VALID,916.747,VALID,0,VALID,96.7107,VALID,0,VALID,18.0275,VALID,350,VALID,0,
2013-09-21, 03:55:04,VALID,916.739,VALID,0,VALID,96.7107,VALID,0,VALID,18.0275,VALID,350,VALID,0,
2013-09-21, 03:56:04,VALID,916.774,VALID,0,VALID,96.7488,VALID,0,VALID,18.1055,VALID,350,VALID,0,
2013-09-21, 03:57:04,VALID,916.741,VALID,0,VALID,96.7716,VALID,0,VALID,18.1445,VALID,350,VALID,0,
2013-09-21, 03:58:04,VALID,916.758,VALID,0,VALID,96.7716,VALID,0,VALID,18.086,VALID,350,VALID,0,
2013-09-21, 03:59:04,VALID,916.764,VALID,0,VALID,96.764,VALID,0,VALID,18.047,VALID,358,VALID,0,